This is the latest recevied weather packets stored in our database for station/object S53BL-10. If no packets are shown the sender has not sent any weather packets the latest 10 day(s).
| Time | Temp. | Humidity | Pressure | Rain* | Wind** | Luminosity | Snow |
|---|---|---|---|---|---|---|---|
| 1777914417 | 21.67° C | 32% | 1012.3 hPa | - | - | - | - |
| 1777913517 | 22.78° C | 31% | 1012.2 hPa | - | - | - | - |
| 1777912616 | 22.78° C | 30% | 1012.2 hPa | - | - | - | - |
| 1777911715 | 23.89° C | 30% | 1012.2 hPa | - | - | - | - |
| 1777910814 | 23.33° C | 29% | 1012.3 hPa | - | - | - | - |
| 1777909913 | 23.33° C | 28% | 1012.5 hPa | - | - | - | - |
| 1777909013 | 23.89° C | 29% | 1012.6 hPa | - | - | - | - |
| 1777908112 | 24.44° C | 26% | 1012.7 hPa | - | - | - | - |
| 1777907211 | 24.44° C | 27% | 1012.6 hPa | - | - | - | - |
| 1777906310 | 25° C | 27% | 1012.7 hPa | - | - | - | - |
| 1777905409 | 25.56° C | 25% | 1012.6 hPa | - | - | - | - |
| 1777904509 | 25.56° C | 26% | 1012.6 hPa | - | - | - | - |
| 1777903608 | 26.11° C | 25% | 1012.8 hPa | - | - | - | - |
| 1777902707 | 25° C | 26% | 1012.9 hPa | - | - | - | - |
| 1777901806 | 25.56° C | 26% | 1012.9 hPa | - | - | - | - |
| 1777900906 | 25° C | 27% | 1013.1 hPa | - | - | - | - |
| 1777900005 | 26.11° C | 25% | 1013.1 hPa | - | - | - | - |
| 1777899104 | 25.56° C | 26% | 1013.1 hPa | - | - | - | - |
| 1777898203 | 26.67° C | 25% | 1013.2 hPa | - | - | - | - |
| 1777897302 | 26.11° C | 25% | 1013.2 hPa | - | - | - | - |
| 1777896401 | 26.11° C | 25% | 1013.2 hPa | - | - | - | - |
| 1777895500 | 26.67° C | 25% | 1013.3 hPa | - | - | - | - |
| 1777894600 | 26.67° C | 26% | 1013.3 hPa | - | - | - | - |
| 1777893699 | 26.67° C | 25% | 1013.3 hPa | - | - | - | - |
| 1777892798 | 26.11° C | 26% | 1013.5 hPa | - | - | - | - |
* Rain since midnight (hover to see other rain measurements)
** Current wind speed in m/s (hover to see current wind gust speed)